TimeCDT,TemperatureF,Dew PointF,Humidity,Sea Level PressureIn,VisibilityMPH,Wind Direction,Wind SpeedMPH,Gust SpeedMPH,PrecipitationIn,Events,Conditions,WindDirDegrees,DateUTC
12:53 AM,68.0,44.1,42,29.71,10.0,South,11.5,-,N/A,,Clear,170,2014-03-31 05:53:00
1:53 AM,66.9,45.0,45,29.68,10.0,SSE,16.1,-,N/A,,Clear,150,2014-03-31 06:53:00
2:53 AM,64.0,46.0,52,29.69,10.0,SSE,9.2,-,N/A,,Clear,160,2014-03-31 07:53:00
3:53 AM,63.0,46.9,56,29.69,10.0,SE,4.6,-,N/A,,Clear,140,2014-03-31 08:53:00
4:53 AM,59.0,46.0,62,29.70,10.0,SE,6.9,-,N/A,,Clear,140,2014-03-31 09:53:00
5:53 AM,57.9,46.0,65,29.72,10.0,Calm,Calm,-,N/A,,Clear,0,2014-03-31 10:53:00
6:53 AM,54.0,44.1,69,29.75,10.0,North,3.5,-,N/A,,Clear,350,2014-03-31 11:53:00
7:53 AM,50.0,42.1,74,29.78,10.0,SW,3.5,-,N/A,,Clear,230,2014-03-31 12:53:00
8:53 AM,57.9,43.0,58,29.80,10.0,Calm,Calm,-,N/A,,Clear,0,2014-03-31 13:53:00
9:53 AM,72.0,21.9,15,29.81,10.0,WSW,12.7,-,N/A,,Clear,240,2014-03-31 14:53:00
10:53 AM,77.0,21.9,13,29.83,10.0,NW,10.4,-,N/A,,Clear,310,2014-03-31 15:53:00
11:53 AM,80.1,21.0,11,29.83,10.0,WNW,15.0,21.9,N/A,,Clear,300,2014-03-31 16:53:00
12:53 PM,82.0,21.0,10,29.81,10.0,NW,9.2,18.4,N/A,,Clear,310,2014-03-31 17:53:00
1:53 PM,82.9,19.0,9,29.79,10.0,Variable,6.9,23.0,N/A,,Clear,0,2014-03-31 18:53:00
2:53 PM,86.0,15.1,7,29.76,10.0,West,19.6,26.5,N/A,,Clear,260,2014-03-31 19:53:00
3:53 PM,86.0,9.0,5,29.74,10.0,WSW,17.3,28.8,N/A,,Clear,250,2014-03-31 20:53:00
4:53 PM,87.1,12.9,6,29.72,10.0,WSW,16.1,26.5,N/A,,Clear,250,2014-03-31 21:53:00
5:53 PM,86.0,12.0,6,29.72,10.0,West,17.3,23.0,N/A,,Clear,270,2014-03-31 22:53:00
6:53 PM,84.9,10.9,6,29.73,10.0,SW,12.7,21.9,N/A,,Clear,230,2014-03-31 23:53:00
7:53 PM,81.0,10.0,7,29.75,10.0,West,10.4,-,N/A,,Clear,270,2014-04-01 00:53:00
8:53 PM,73.0,10.0,9,29.78,10.0,North,4.6,-,N/A,,Clear,10,2014-04-01 01:53:00
9:53 PM,71.1,10.0,9,29.78,10.0,WNW,6.9,-,N/A,,Clear,290,2014-04-01 02:53:00
10:53 PM,71.1,10.9,10,29.78,10.0,WNW,12.7,-,N/A,,Clear,290,2014-04-01 03:53:00
11:53 PM,69.1,12.0,11,29.77,10.0,North,8.1,-,N/A,,Clear,350,2014-04-01 04:53:00